Year,Month,Day,Hour,Minute,Value (Times are PST for temperature in C)
2007,10,14,00,00,8.80
2007,10,14,00,01,8.80
2007,10,14,00,02,8.80
2007,10,14,00,03,8.80
2007,10,14,00,04,8.80
2007,10,14,00,05,8.70
2007,10,14,00,06,8.80
2007,10,14,00,07,8.80
2007,10,14,00,08,8.80
2007,10,14,00,09,8.80
2007,10,14,00,10,8.80
2007,10,14,00,11,8.80
2007,10,14,00,12,8.90
2007,10,14,00,13,8.90
2007,10,14,00,14,8.90
2007,10,14,00,15,8.90
2007,10,14,00,16,8.90
2007,10,14,00,17,8.90
2007,10,14,00,18,8.90
2007,10,14,00,19,8.90
2007,10,14,00,20,8.80
2007,10,14,00,21,8.80
2007,10,14,00,22,8.80
2007,10,14,00,23,8.80
2007,10,14,00,24,8.80
2007,10,14,00,25,8.80
2007,10,14,00,26,8.70
2007,10,14,00,27,8.70
2007,10,14,00,28,8.70
2007,10,14,00,29,8.70
2007,10,14,00,30,8.70
2007,10,14,00,31,8.70
2007,10,14,00,32,8.70
2007,10,14,00,33,8.70
2007,10,14,00,34,8.70
2007,10,14,00,35,8.70
2007,10,14,00,36,8.80
2007,10,14,00,37,8.80
2007,10,14,00,38,8.80
2007,10,14,00,39,8.80
2007,10,14,00,40,8.80
2007,10,14,00,41,8.90
2007,10,14,00,42,8.90
2007,10,14,00,43,8.90
2007,10,14,00,44,8.90
2007,10,14,00,45,9.00
2007,10,14,00,46,9.00
2007,10,14,00,47,9.00
2007,10,14,00,48,9.00
2007,10,14,00,49,9.00
2007,10,14,00,50,9.10
2007,10,14,00,51,9.10
2007,10,14,00,52,9.10
2007,10,14,00,53,9.10
2007,10,14,00,54,9.10
2007,10,14,00,55,9.00
2007,10,14,00,56,9.00
2007,10,14,00,57,9.00
2007,10,14,00,58,9.00
2007,10,14,00,59,9.00
2007,10,14,01,00,8.90
2007,10,14,01,01,8.90
2007,10,14,01,02,8.90
2007,10,14,01,03,8.80
2007,10,14,01,04,8.80
2007,10,14,01,05,8.80
2007,10,14,01,06,8.70
2007,10,14,01,07,8.70
2007,10,14,01,08,8.70
2007,10,14,01,09,8.70
2007,10,14,01,10,8.70
2007,10,14,01,11,8.70
2007,10,14,01,12,8.70
2007,10,14,01,13,8.70
2007,10,14,01,14,8.70
2007,10,14,01,15,8.70
2007,10,14,01,16,8.70
2007,10,14,01,17,8.60
2007,10,14,01,18,8.60
2007,10,14,01,19,8.60
2007,10,14,01,20,8.60
2007,10,14,01,21,8.60
2007,10,14,01,22,8.60
2007,10,14,01,23,8.60
2007,10,14,01,24,8.60
2007,10,14,01,25,8.60
2007,10,14,01,26,8.60
2007,10,14,01,27,8.50
2007,10,14,01,28,8.50
2007,10,14,01,29,8.50
2007,10,14,01,30,8.50
2007,10,14,01,31,8.40
2007,10,14,01,32,8.40
2007,10,14,01,33,8.30
2007,10,14,01,34,8.20
2007,10,14,01,35,8.20
2007,10,14,01,36,8.10
2007,10,14,01,37,8.00
2007,10,14,01,38,7.90
2007,10,14,01,39,7.90
2007,10,14,01,40,7.80
2007,10,14,01,41,7.80
2007,10,14,01,42,7.80
2007,10,14,01,43,7.80
2007,10,14,01,44,7.80
2007,10,14,01,45,7.80
2007,10,14,01,46,7.80
2007,10,14,01,47,7.80
2007,10,14,01,48,7.80
2007,10,14,01,49,7.80
2007,10,14,01,50,7.90
2007,10,14,01,51,7.90
2007,10,14,01,52,7.90
2007,10,14,01,53,7.90
2007,10,14,01,54,7.90
2007,10,14,01,55,7.90
2007,10,14,01,56,7.90
2007,10,14,01,57,7.90
2007,10,14,01,58,7.90
2007,10,14,01,59,7.90
2007,10,14,02,00,7.90
2007,10,14,02,01,7.90
2007,10,14,02,02,8.00
2007,10,14,02,03,8.00
2007,10,14,02,04,8.00
2007,10,14,02,05,8.00
2007,10,14,02,06,8.00
2007,10,14,02,07,8.00
2007,10,14,02,08,8.00
2007,10,14,02,09,8.00
2007,10,14,02,10,8.00
2007,10,14,02,11,8.00
2007,10,14,02,12,8.00
2007,10,14,02,13,7.90
2007,10,14,02,14,7.90
2007,10,14,02,15,7.80
2007,10,14,02,16,7.80
2007,10,14,02,17,7.70
2007,10,14,02,18,7.70
2007,10,14,02,19,7.60
2007,10,14,02,20,7.50
2007,10,14,02,21,7.50
2007,10,14,02,22,7.40
2007,10,14,02,23,7.40
2007,10,14,02,24,7.30
2007,10,14,02,25,7.30
2007,10,14,02,26,7.30
2007,10,14,02,27,7.20
2007,10,14,02,28,7.20
2007,10,14,02,29,7.20
2007,10,14,02,30,7.20
2007,10,14,02,31,7.10
2007,10,14,02,32,7.20
2007,10,14,02,33,7.20
2007,10,14,02,34,7.20
2007,10,14,02,35,7.20
2007,10,14,02,36,7.20
2007,10,14,02,37,7.30
2007,10,14,02,38,7.30
2007,10,14,02,39,7.30
2007,10,14,02,40,7.30
2007,10,14,02,41,7.30
2007,10,14,02,42,7.30
2007,10,14,02,43,7.30
2007,10,14,02,44,7.30
2007,10,14,02,45,7.30
2007,10,14,02,46,7.30
2007,10,14,02,47,7.30
2007,10,14,02,48,7.30
2007,10,14,02,49,7.30
2007,10,14,02,50,7.30
2007,10,14,02,51,7.30
2007,10,14,02,52,7.30
2007,10,14,02,53,7.30
2007,10,14,02,54,7.30
2007,10,14,02,55,7.30
2007,10,14,02,56,7.30
2007,10,14,02,57,7.30
2007,10,14,02,58,7.30
2007,10,14,02,59,7.30
2007,10,14,03,00,7.30
2007,10,14,03,01,7.30
2007,10,14,03,02,7.30
2007,10,14,03,03,7.20
2007,10,14,03,04,7.20
2007,10,14,03,05,7.20
2007,10,14,03,06,7.30
2007,10,14,03,07,7.30
2007,10,14,03,08,7.30
2007,10,14,03,09,7.30
2007,10,14,03,10,7.30
2007,10,14,03,11,7.30
2007,10,14,03,12,7.30
2007,10,14,03,13,7.30
2007,10,14,03,14,7.30
2007,10,14,03,15,7.30
2007,10,14,03,16,7.40
2007,10,14,03,17,7.40
2007,10,14,03,18,7.40
2007,10,14,03,19,7.50
2007,10,14,03,20,7.50
2007,10,14,03,21,7.60
2007,10,14,03,22,7.60
2007,10,14,03,23,7.60
2007,10,14,03,24,7.70
2007,10,14,03,25,7.70
2007,10,14,03,26,7.70
2007,10,14,03,27,7.70
2007,10,14,03,28,7.70
2007,10,14,03,29,7.80
2007,10,14,03,30,7.80
2007,10,14,03,31,7.80
2007,10,14,03,32,7.80
2007,10,14,03,33,7.80
2007,10,14,03,34,7.70
2007,10,14,03,35,7.70
2007,10,14,03,36,7.70
2007,10,14,03,37,7.60
2007,10,14,03,38,7.50
2007,10,14,03,39,7.40
2007,10,14,03,40,7.40
2007,10,14,03,41,7.30
2007,10,14,03,42,7.30
2007,10,14,03,43,7.30
2007,10,14,03,44,7.30
2007,10,14,03,45,7.20
2007,10,14,03,46,7.20
2007,10,14,03,47,7.20
2007,10,14,03,48,7.20
2007,10,14,03,49,7.20
2007,10,14,03,50,7.20
2007,10,14,03,51,7.20
2007,10,14,03,52,7.10
2007,10,14,03,53,7.10
2007,10,14,03,54,7.00
2007,10,14,03,55,7.00
2007,10,14,03,56,7.00
2007,10,14,03,57,7.10
2007,10,14,03,58,7.10
2007,10,14,03,59,7.10
2007,10,14,04,00,7.10
2007,10,14,04,01,7.10
2007,10,14,04,02,7.10
2007,10,14,04,03,7.10
2007,10,14,04,04,7.10
2007,10,14,04,05,7.00
2007,10,14,04,06,7.00
2007,10,14,04,07,7.00
2007,10,14,04,08,7.00
2007,10,14,04,09,7.00
2007,10,14,04,10,7.00
2007,10,14,04,11,6.90
2007,10,14,04,12,6.90
2007,10,14,04,13,6.90
2007,10,14,04,14,6.90
2007,10,14,04,15,6.90
2007,10,14,04,16,6.90
2007,10,14,04,17,6.90
2007,10,14,04,18,6.90
2007,10,14,04,19,6.90
2007,10,14,04,20,6.90
2007,10,14,04,21,6.90
2007,10,14,04,22,6.90
2007,10,14,04,23,7.00
2007,10,14,04,24,7.00
2007,10,14,04,25,7.10
2007,10,14,04,26,7.20
2007,10,14,04,27,7.30
2007,10,14,04,28,7.30
2007,10,14,04,29,7.30
2007,10,14,04,30,7.40
2007,10,14,04,31,7.50
2007,10,14,04,32,7.60
2007,10,14,04,33,7.70
2007,10,14,04,34,7.70
2007,10,14,04,35,7.70
2007,10,14,04,36,7.80
2007,10,14,04,37,7.80
2007,10,14,04,38,7.80
2007,10,14,04,39,7.80
2007,10,14,04,40,7.80
2007,10,14,04,41,7.80
2007,10,14,04,42,7.80
2007,10,14,04,43,7.90
2007,10,14,04,44,7.90
2007,10,14,04,45,7.90
2007,10,14,04,46,7.90
2007,10,14,04,47,7.90
2007,10,14,04,48,7.90
2007,10,14,04,49,7.90
2007,10,14,04,50,8.00
2007,10,14,04,51,8.00
2007,10,14,04,52,8.00
2007,10,14,04,53,8.00
2007,10,14,04,54,8.00
2007,10,14,04,55,8.00
2007,10,14,04,56,8.00
2007,10,14,04,57,8.00
2007,10,14,04,58,8.00
2007,10,14,04,59,8.00
2007,10,14,05,00,8.00
2007,10,14,05,01,7.90
2007,10,14,05,02,7.90
2007,10,14,05,03,7.90
2007,10,14,05,04,7.80
2007,10,14,05,05,7.80
2007,10,14,05,06,7.80
2007,10,14,05,07,7.80
2007,10,14,05,08,7.80
2007,10,14,05,09,7.80
2007,10,14,05,10,7.80
2007,10,14,05,11,7.80
2007,10,14,05,12,7.80
2007,10,14,05,13,7.80
2007,10,14,05,14,7.80
2007,10,14,05,15,7.80
2007,10,14,05,16,7.80
2007,10,14,05,17,7.90
2007,10,14,05,18,7.90
2007,10,14,05,19,8.00
2007,10,14,05,20,8.00
2007,10,14,05,21,8.10
2007,10,14,05,22,8.00
2007,10,14,05,23,8.00
2007,10,14,05,24,8.00
2007,10,14,05,25,8.00
2007,10,14,05,26,8.00
2007,10,14,05,27,8.00
2007,10,14,05,28,8.00
2007,10,14,05,29,8.10
2007,10,14,05,30,8.20
2007,10,14,05,31,8.20
2007,10,14,05,32,8.20
2007,10,14,05,33,8.20
2007,10,14,05,34,8.20
2007,10,14,05,35,8.20
2007,10,14,05,36,8.20
2007,10,14,05,37,8.10
2007,10,14,05,38,8.00
2007,10,14,05,39,8.00
2007,10,14,05,40,8.00
2007,10,14,05,41,8.00
2007,10,14,05,42,7.90
2007,10,14,05,43,7.90
2007,10,14,05,44,7.90
2007,10,14,05,45,7.80
2007,10,14,05,46,7.80
2007,10,14,05,47,7.80
2007,10,14,05,48,7.80
2007,10,14,05,49,7.80
2007,10,14,05,50,7.70
2007,10,14,05,51,7.70
2007,10,14,05,52,7.70
2007,10,14,05,53,7.70
2007,10,14,05,54,7.80
2007,10,14,05,55,7.80
2007,10,14,05,56,7.80
2007,10,14,05,57,7.90
2007,10,14,05,58,7.90
2007,10,14,05,59,8.00
2007,10,14,06,00,8.00
2007,10,14,06,01,8.00
2007,10,14,06,02,8.00
2007,10,14,06,03,8.00
2007,10,14,06,04,8.10
2007,10,14,06,05,8.00
2007,10,14,06,06,8.00
2007,10,14,06,07,8.00
2007,10,14,06,08,8.00
2007,10,14,06,09,8.00
2007,10,14,06,10,8.00
2007,10,14,06,11,8.00
2007,10,14,06,12,8.00
2007,10,14,06,13,8.00
2007,10,14,06,14,7.90
2007,10,14,06,15,7.90
2007,10,14,06,16,7.90
2007,10,14,06,17,7.90
2007,10,14,06,18,7.90
2007,10,14,06,19,7.90
2007,10,14,06,20,7.90
2007,10,14,06,21,7.80
2007,10,14,06,22,7.80
2007,10,14,06,23,7.80
2007,10,14,06,24,7.80
2007,10,14,06,25,7.70
2007,10,14,06,26,7.70
2007,10,14,06,27,7.70
2007,10,14,06,28,7.60
2007,10,14,06,29,7.60
2007,10,14,06,30,7.60
2007,10,14,06,31,7.50
2007,10,14,06,32,7.50
2007,10,14,06,33,7.40
2007,10,14,06,34,7.40
2007,10,14,06,35,7.40
2007,10,14,06,36,7.30
2007,10,14,06,37,7.30
2007,10,14,06,38,7.30
2007,10,14,06,39,7.30
2007,10,14,06,40,7.30
2007,10,14,06,41,7.30
2007,10,14,06,42,7.30
2007,10,14,06,43,7.30
2007,10,14,06,44,7.30
2007,10,14,06,45,7.30
2007,10,14,06,46,7.30
2007,10,14,06,47,7.30
2007,10,14,06,48,7.30
2007,10,14,06,49,7.30
2007,10,14,06,50,7.30
2007,10,14,06,51,7.30
2007,10,14,06,52,7.30
2007,10,14,06,53,7.30
2007,10,14,06,54,7.30
2007,10,14,06,55,7.30
2007,10,14,06,56,7.30
2007,10,14,06,57,7.30
2007,10,14,06,58,7.30
2007,10,14,06,59,7.30
2007,10,14,07,00,7.30
2007,10,14,07,01,7.30
2007,10,14,07,02,7.30
2007,10,14,07,03,7.30
2007,10,14,07,04,7.30
2007,10,14,07,05,7.30
2007,10,14,07,06,7.30
2007,10,14,07,07,7.30
2007,10,14,07,08,7.30
2007,10,14,07,09,7.30
2007,10,14,07,10,7.30
2007,10,14,07,11,7.30
2007,10,14,07,12,7.30
2007,10,14,07,13,7.30
2007,10,14,07,14,7.30
2007,10,14,07,15,7.30
2007,10,14,07,16,7.30
2007,10,14,07,17,7.30
2007,10,14,07,18,7.40
2007,10,14,07,19,7.50
2007,10,14,07,20,7.70
2007,10,14,07,21,7.80
2007,10,14,07,22,7.80
2007,10,14,07,23,7.80
2007,10,14,07,24,7.80
2007,10,14,07,25,7.70
2007,10,14,07,26,7.60
2007,10,14,07,27,7.50
2007,10,14,07,28,7.40
2007,10,14,07,29,7.40
2007,10,14,07,30,7.30
2007,10,14,07,31,7.30
2007,10,14,07,32,7.30
2007,10,14,07,33,7.30
2007,10,14,07,34,7.20
2007,10,14,07,35,7.20
2007,10,14,07,36,7.20
2007,10,14,07,37,7.20
2007,10,14,07,38,7.20
2007,10,14,07,39,7.20
2007,10,14,07,40,7.20
2007,10,14,07,41,7.20
2007,10,14,07,42,7.20
2007,10,14,07,43,7.20
2007,10,14,07,44,7.20
2007,10,14,07,45,7.20
2007,10,14,07,46,7.20
2007,10,14,07,47,7.20
2007,10,14,07,48,7.10
2007,10,14,07,49,7.10
2007,10,14,07,50,7.00
2007,10,14,07,51,7.00
2007,10,14,07,52,7.00
2007,10,14,07,53,7.00
2007,10,14,07,54,6.90
2007,10,14,07,55,7.00
2007,10,14,07,56,7.00
2007,10,14,07,57,7.00
2007,10,14,07,58,6.90
2007,10,14,07,59,6.90
2007,10,14,08,00,6.80
2007,10,14,08,01,6.80
2007,10,14,08,02,6.80
2007,10,14,08,03,6.80
2007,10,14,08,04,6.80
2007,10,14,08,05,6.80
2007,10,14,08,06,6.80
2007,10,14,08,07,6.80
2007,10,14,08,08,6.70
2007,10,14,08,09,6.70
2007,10,14,08,10,6.70
2007,10,14,08,11,6.60
2007,10,14,08,12,6.60
2007,10,14,08,13,6.70
2007,10,14,08,14,6.70
2007,10,14,08,15,6.70
2007,10,14,08,16,6.70
2007,10,14,08,17,6.70
2007,10,14,08,18,6.60
2007,10,14,08,19,6.60
2007,10,14,08,20,6.60
2007,10,14,08,21,6.60
2007,10,14,08,22,6.60
2007,10,14,08,23,6.60
2007,10,14,08,24,6.70
2007,10,14,08,25,6.70
2007,10,14,08,26,6.70
2007,10,14,08,27,6.80
2007,10,14,08,28,6.80
2007,10,14,08,29,6.80
2007,10,14,08,30,6.80
2007,10,14,08,31,6.80
2007,10,14,08,32,6.90
2007,10,14,08,33,6.90
2007,10,14,08,34,7.00
2007,10,14,08,35,7.10
2007,10,14,08,36,7.10
2007,10,14,08,37,7.20
2007,10,14,08,38,7.20
2007,10,14,08,39,7.20
2007,10,14,08,40,7.30
2007,10,14,08,41,7.30
2007,10,14,08,42,7.30
2007,10,14,08,43,7.30
2007,10,14,08,44,7.40
2007,10,14,08,45,7.40
2007,10,14,08,46,7.50
2007,10,14,08,47,7.50
2007,10,14,08,48,7.50
2007,10,14,08,49,7.60
2007,10,14,08,50,7.60
2007,10,14,08,51,7.60
2007,10,14,08,52,7.70
2007,10,14,08,53,7.80
2007,10,14,08,54,7.80
2007,10,14,08,55,7.90
2007,10,14,08,56,7.90
2007,10,14,08,57,8.00
2007,10,14,08,58,8.10
2007,10,14,08,59,8.20
2007,10,14,09,00,8.20
2007,10,14,09,01,8.30
2007,10,14,09,02,8.40
2007,10,14,09,03,8.40
2007,10,14,09,04,8.50
2007,10,14,09,05,8.50
2007,10,14,09,06,8.60
2007,10,14,09,07,8.70
2007,10,14,09,08,8.70
2007,10,14,09,09,8.80
2007,10,14,09,10,8.90
2007,10,14,09,11,8.90
2007,10,14,09,12,9.00
2007,10,14,09,13,9.10
2007,10,14,09,14,9.20
2007,10,14,09,15,9.20
2007,10,14,09,16,9.20
2007,10,14,09,17,9.40
2007,10,14,09,18,9.40
2007,10,14,09,19,9.50
2007,10,14,09,20,9.60
2007,10,14,09,21,9.70
2007,10,14,09,22,9.70
2007,10,14,09,23,9.80
2007,10,14,09,24,9.80
2007,10,14,09,25,9.90
2007,10,14,09,26,10.00
2007,10,14,09,27,10.10
2007,10,14,09,28,10.20
2007,10,14,09,29,10.20
2007,10,14,09,30,10.30
2007,10,14,09,31,10.40
2007,10,14,09,32,10.50
2007,10,14,09,33,10.60
2007,10,14,09,34,10.70
2007,10,14,09,35,10.80
2007,10,14,09,36,10.90
2007,10,14,09,37,10.90
2007,10,14,09,38,11.10
2007,10,14,09,39,11.10
2007,10,14,09,40,11.20
2007,10,14,09,41,11.30
2007,10,14,09,42,11.40
2007,10,14,09,43,11.40
2007,10,14,09,44,11.60
2007,10,14,09,45,11.60
2007,10,14,09,46,11.70
2007,10,14,09,47,11.80
2007,10,14,09,48,11.80
2007,10,14,09,49,11.80
2007,10,14,09,50,11.90
2007,10,14,09,51,11.90
2007,10,14,09,52,11.90
2007,10,14,09,53,12.00
2007,10,14,09,54,12.00
2007,10,14,09,55,12.00
2007,10,14,09,56,12.00
2007,10,14,09,57,11.90
2007,10,14,09,58,12.00
2007,10,14,09,59,12.10
2007,10,14,10,00,12.10
2007,10,14,10,01,12.10
2007,10,14,10,02,12.10
2007,10,14,10,03,12.10
2007,10,14,10,04,12.10
2007,10,14,10,05,12.10
2007,10,14,10,06,12.10
2007,10,14,10,07,12.20
2007,10,14,10,08,12.20
2007,10,14,10,09,12.30
2007,10,14,10,10,12.40
2007,10,14,10,11,12.40
2007,10,14,10,12,12.40
2007,10,14,10,13,12.40
2007,10,14,10,14,12.40
2007,10,14,10,15,12.40
2007,10,14,10,16,12.40
2007,10,14,10,17,12.50
2007,10,14,10,18,12.50
2007,10,14,10,19,12.40
2007,10,14,10,20,12.40
2007,10,14,10,21,12.40
2007,10,14,10,22,12.30
2007,10,14,10,23,12.30
2007,10,14,10,24,12.30
2007,10,14,10,25,12.30
2007,10,14,10,26,12.30
2007,10,14,10,27,12.20
2007,10,14,10,28,12.20
2007,10,14,10,29,12.20
2007,10,14,10,30,12.10
2007,10,14,10,31,12.10
2007,10,14,10,32,12.00
2007,10,14,10,33,12.00
2007,10,14,10,34,12.00
2007,10,14,10,35,11.90
2007,10,14,10,36,12.00
2007,10,14,10,37,12.00
2007,10,14,10,38,12.10
2007,10,14,10,39,12.10
2007,10,14,10,40,12.20
2007,10,14,10,41,12.20
2007,10,14,10,42,12.30
2007,10,14,10,43,12.30
2007,10,14,10,44,12.30
2007,10,14,10,45,12.30
2007,10,14,10,46,12.30
2007,10,14,10,47,12.30
2007,10,14,10,48,12.30
2007,10,14,10,49,12.30
2007,10,14,10,50,12.30
2007,10,14,10,51,12.30
2007,10,14,10,52,12.40
2007,10,14,10,53,12.40
2007,10,14,10,54,12.40
2007,10,14,10,55,12.40
2007,10,14,10,56,12.40
2007,10,14,10,57,12.50
2007,10,14,10,58,12.50
2007,10,14,10,59,12.50
2007,10,14,11,00,12.50
2007,10,14,11,01,12.50
2007,10,14,11,02,12.50
2007,10,14,11,03,12.50
2007,10,14,11,04,12.60
2007,10,14,11,05,12.60
2007,10,14,11,06,12.60
2007,10,14,11,07,12.60
2007,10,14,11,08,12.50
2007,10,14,11,09,12.50
2007,10,14,11,10,12.60
2007,10,14,11,11,12.60
2007,10,14,11,12,12.60
2007,10,14,11,13,12.70
2007,10,14,11,14,12.70
2007,10,14,11,15,12.70
2007,10,14,11,16,12.70
2007,10,14,11,17,12.80
2007,10,14,11,18,12.80
2007,10,14,11,19,12.70
2007,10,14,11,20,12.70
2007,10,14,11,21,12.70
2007,10,14,11,22,12.70
2007,10,14,11,23,12.60
2007,10,14,11,24,12.60
2007,10,14,11,25,12.60
2007,10,14,11,26,12.60
2007,10,14,11,27,12.60
2007,10,14,11,28,12.60
2007,10,14,11,29,12.60
2007,10,14,11,30,12.60
2007,10,14,11,31,12.60
2007,10,14,11,32,12.60
2007,10,14,11,33,12.60
2007,10,14,11,34,12.60
2007,10,14,11,35,12.60
2007,10,14,11,36,12.60
2007,10,14,11,37,12.60
2007,10,14,11,38,12.70
2007,10,14,11,39,12.70
2007,10,14,11,40,12.70
2007,10,14,11,41,12.70
2007,10,14,11,42,12.80
2007,10,14,11,43,12.80
2007,10,14,11,44,12.80
2007,10,14,11,45,12.80
2007,10,14,11,46,12.80
2007,10,14,11,47,12.90
2007,10,14,11,48,12.90
2007,10,14,11,49,13.00
2007,10,14,11,50,13.00
2007,10,14,11,51,13.00
2007,10,14,11,52,13.10
2007,10,14,11,53,13.10
2007,10,14,11,54,13.10
2007,10,14,11,55,13.10
2007,10,14,11,56,13.10
2007,10,14,11,57,13.10
2007,10,14,11,58,13.10
2007,10,14,11,59,13.10
2007,10,14,12,00,13.10
2007,10,14,12,01,13.20
2007,10,14,12,02,13.20
2007,10,14,12,03,13.20
2007,10,14,12,04,13.20
2007,10,14,12,05,13.20
2007,10,14,12,06,13.30
2007,10,14,12,07,13.30
2007,10,14,12,08,13.30
2007,10,14,12,09,13.30
2007,10,14,12,10,13.30
2007,10,14,12,11,13.30
2007,10,14,12,12,13.30
2007,10,14,12,13,13.30
2007,10,14,12,14,13.30
2007,10,14,12,15,13.30
2007,10,14,12,16,13.30
2007,10,14,12,17,13.20
2007,10,14,12,18,13.20
2007,10,14,12,19,13.20
2007,10,14,12,20,13.10
2007,10,14,12,21,13.10
2007,10,14,12,22,13.10
2007,10,14,12,23,13.10
2007,10,14,12,24,13.10
2007,10,14,12,25,13.10
2007,10,14,12,26,13.20
2007,10,14,12,27,13.20
2007,10,14,12,28,13.20
2007,10,14,12,29,13.20
2007,10,14,12,30,13.20
2007,10,14,12,31,13.20
2007,10,14,12,32,13.10
2007,10,14,12,33,13.10
2007,10,14,12,34,13.10
2007,10,14,12,35,13.10
2007,10,14,12,36,13.00
2007,10,14,12,37,13.00
2007,10,14,12,38,13.00
2007,10,14,12,39,13.00
2007,10,14,12,40,13.00
2007,10,14,12,41,13.00
2007,10,14,12,42,13.10
2007,10,14,12,43,13.10
2007,10,14,12,44,13.10
2007,10,14,12,45,13.10
2007,10,14,12,46,13.10
2007,10,14,12,47,13.10
2007,10,14,12,48,13.10
2007,10,14,12,49,13.20
2007,10,14,12,50,13.20
2007,10,14,12,51,13.30
2007,10,14,12,52,13.30
2007,10,14,12,53,13.30
2007,10,14,12,54,13.30
2007,10,14,12,55,13.30
2007,10,14,12,56,13.30
2007,10,14,12,57,13.30
2007,10,14,12,58,13.30
2007,10,14,12,59,13.30
2007,10,14,13,00,13.40
2007,10,14,13,01,13.30
2007,10,14,13,02,13.20
2007,10,14,13,03,13.00
2007,10,14,13,04,12.80
2007,10,14,13,05,12.70
2007,10,14,13,06,12.60
2007,10,14,13,07,12.50
2007,10,14,13,08,12.40
2007,10,14,13,09,12.30
2007,10,14,13,10,12.20
2007,10,14,13,11,12.20
2007,10,14,13,12,12.20
2007,10,14,13,13,12.20
2007,10,14,13,14,12.10
2007,10,14,13,15,12.00
2007,10,14,13,16,11.90
2007,10,14,13,17,11.90
2007,10,14,13,18,11.80
2007,10,14,13,19,11.80
2007,10,14,13,20,11.80
2007,10,14,13,21,11.70
2007,10,14,13,22,11.70
2007,10,14,13,23,11.60
2007,10,14,13,24,11.70
2007,10,14,13,25,11.70
2007,10,14,13,26,11.80
2007,10,14,13,27,11.80
2007,10,14,13,28,11.80
2007,10,14,13,29,11.80
2007,10,14,13,30,11.70
2007,10,14,13,31,11.80
2007,10,14,13,32,11.80
2007,10,14,13,33,11.90
2007,10,14,13,34,11.90
2007,10,14,13,35,12.00
2007,10,14,13,36,12.00
2007,10,14,13,37,12.20
2007,10,14,13,38,12.30
2007,10,14,13,39,12.40
2007,10,14,13,40,12.40
2007,10,14,13,41,12.40
2007,10,14,13,42,12.50
2007,10,14,13,43,12.40
2007,10,14,13,44,12.30
2007,10,14,13,45,12.30
2007,10,14,13,46,12.30
2007,10,14,13,47,12.30
2007,10,14,13,48,12.20
2007,10,14,13,49,12.20
2007,10,14,13,50,12.20
2007,10,14,13,51,12.20
2007,10,14,13,52,12.20
2007,10,14,13,53,12.20
2007,10,14,13,54,12.20
2007,10,14,13,55,12.10
2007,10,14,13,56,12.10
2007,10,14,13,57,12.10
2007,10,14,13,58,12.10
2007,10,14,13,59,12.20
2007,10,14,14,00,12.30
2007,10,14,14,01,12.30
2007,10,14,14,02,12.30
2007,10,14,14,03,12.30
2007,10,14,14,04,12.30
2007,10,14,14,05,12.30
2007,10,14,14,06,12.30
2007,10,14,14,07,12.30
2007,10,14,14,08,12.20
2007,10,14,14,09,12.10
2007,10,14,14,10,12.10
2007,10,14,14,11,12.10
2007,10,14,14,12,12.00
2007,10,14,14,13,11.90
2007,10,14,14,14,11.80
2007,10,14,14,15,11.70
2007,10,14,14,16,11.70
2007,10,14,14,17,11.70
2007,10,14,14,18,11.60
2007,10,14,14,19,11.60
2007,10,14,14,20,11.40
2007,10,14,14,21,11.40
2007,10,14,14,22,11.30
2007,10,14,14,23,11.30
2007,10,14,14,24,11.30
2007,10,14,14,25,11.30
2007,10,14,14,26,11.30
2007,10,14,14,27,11.30
2007,10,14,14,28,11.30
2007,10,14,14,29,11.30
2007,10,14,14,30,11.30
2007,10,14,14,31,11.30
2007,10,14,14,32,11.30
2007,10,14,14,33,11.30
2007,10,14,14,34,11.20
2007,10,14,14,35,11.20
2007,10,14,14,36,11.20
2007,10,14,14,37,11.20
2007,10,14,14,38,11.30
2007,10,14,14,39,11.30
2007,10,14,14,40,11.40
2007,10,14,14,41,11.40
2007,10,14,14,42,11.40
2007,10,14,14,43,11.40
2007,10,14,14,44,11.40
2007,10,14,14,45,11.40
2007,10,14,14,46,11.30
2007,10,14,14,47,11.20
2007,10,14,14,48,11.20
2007,10,14,14,49,11.20
2007,10,14,14,50,11.20
2007,10,14,14,51,11.20
2007,10,14,14,52,11.20
2007,10,14,14,53,11.20
2007,10,14,14,54,11.20
2007,10,14,14,55,11.20
2007,10,14,14,56,11.20
2007,10,14,14,57,11.20
2007,10,14,14,58,11.30
2007,10,14,14,59,11.40
2007,10,14,15,00,11.40
2007,10,14,15,01,11.40
2007,10,14,15,02,11.40
2007,10,14,15,03,11.40
2007,10,14,15,04,11.40
2007,10,14,15,05,11.40
2007,10,14,15,06,11.40
2007,10,14,15,07,11.40
2007,10,14,15,08,11.50
2007,10,14,15,09,11.60
2007,10,14,15,10,11.60
2007,10,14,15,11,11.60
2007,10,14,15,12,11.60
2007,10,14,15,13,11.60
2007,10,14,15,14,11.60
2007,10,14,15,15,11.70
2007,10,14,15,16,11.70
2007,10,14,15,17,11.80
2007,10,14,15,18,11.70
2007,10,14,15,19,11.60
2007,10,14,15,20,11.60
2007,10,14,15,21,11.50
2007,10,14,15,22,11.40
2007,10,14,15,23,11.40
2007,10,14,15,24,11.40
2007,10,14,15,25,11.40
2007,10,14,15,26,11.40
2007,10,14,15,27,11.40
2007,10,14,15,28,11.40
2007,10,14,15,29,11.40
2007,10,14,15,30,11.40
2007,10,14,15,31,11.40
2007,10,14,15,32,11.40
2007,10,14,15,33,11.40
2007,10,14,15,34,11.40
2007,10,14,15,35,11.40
2007,10,14,15,36,11.40
2007,10,14,15,37,11.40
2007,10,14,15,38,11.40
2007,10,14,15,39,11.40
2007,10,14,15,40,11.50
2007,10,14,15,41,11.60
2007,10,14,15,42,11.60
2007,10,14,15,43,11.70
2007,10,14,15,44,11.70
2007,10,14,15,45,11.80
2007,10,14,15,46,11.80
2007,10,14,15,47,11.80
2007,10,14,15,48,11.80
2007,10,14,15,49,11.80
2007,10,14,15,50,11.80
2007,10,14,15,51,11.80
2007,10,14,15,52,11.80
2007,10,14,15,53,11.80
2007,10,14,15,54,11.80
2007,10,14,15,55,11.70
2007,10,14,15,56,11.70
2007,10,14,15,57,11.70
2007,10,14,15,58,11.70
2007,10,14,15,59,11.70
2007,10,14,16,00,11.80
2007,10,14,16,01,11.80
2007,10,14,16,02,11.80
2007,10,14,16,03,11.80
2007,10,14,16,04,11.80
2007,10,14,16,05,11.80
2007,10,14,16,06,11.80
2007,10,14,16,07,11.90
2007,10,14,16,08,11.90
2007,10,14,16,09,11.90
2007,10,14,16,10,12.00
2007,10,14,16,11,12.00
2007,10,14,16,12,12.10
2007,10,14,16,13,12.10
2007,10,14,16,14,12.10
2007,10,14,16,15,12.10
2007,10,14,16,16,12.10
2007,10,14,16,17,12.20
2007,10,14,16,18,12.20
2007,10,14,16,19,12.20
2007,10,14,16,20,12.20
2007,10,14,16,21,12.20
2007,10,14,16,22,12.20
2007,10,14,16,23,12.30
2007,10,14,16,24,12.30
2007,10,14,16,25,12.30
2007,10,14,16,26,12.30
2007,10,14,16,27,12.30
2007,10,14,16,28,12.30
2007,10,14,16,29,12.30
2007,10,14,16,30,12.30
2007,10,14,16,31,12.40
2007,10,14,16,32,12.40
2007,10,14,16,33,12.40
2007,10,14,16,34,12.40
2007,10,14,16,35,12.40
2007,10,14,16,36,12.40
2007,10,14,16,37,12.40
2007,10,14,16,38,12.40
2007,10,14,16,39,12.50
2007,10,14,16,40,12.50
2007,10,14,16,41,12.50
2007,10,14,16,42,12.50
2007,10,14,16,43,12.50
2007,10,14,16,44,12.50
2007,10,14,16,45,12.50
2007,10,14,16,46,12.50
2007,10,14,16,47,12.50
2007,10,14,16,48,12.50
2007,10,14,16,49,12.60
2007,10,14,16,50,12.60
2007,10,14,16,51,12.60
2007,10,14,16,52,12.60
2007,10,14,16,53,12.60
2007,10,14,16,54,12.60
2007,10,14,16,55,12.60
2007,10,14,16,56,12.60
2007,10,14,16,57,12.60
2007,10,14,16,58,12.50
2007,10,14,16,59,12.50
2007,10,14,17,00,12.50
2007,10,14,17,01,12.50
2007,10,14,17,02,12.40
2007,10,14,17,03,12.40
2007,10,14,17,04,12.50
2007,10,14,17,05,12.50
2007,10,14,17,06,12.50
2007,10,14,17,07,12.60
2007,10,14,17,08,12.60
2007,10,14,17,09,12.60
2007,10,14,17,10,12.70
2007,10,14,17,11,12.80
2007,10,14,17,12,12.80
2007,10,14,17,13,12.80
2007,10,14,17,14,12.80
2007,10,14,17,15,12.80
2007,10,14,17,16,12.90
2007,10,14,17,17,12.90
2007,10,14,17,18,12.90
2007,10,14,17,19,12.90
2007,10,14,17,20,12.90
2007,10,14,17,21,12.90
2007,10,14,17,22,12.90
2007,10,14,17,23,12.90
2007,10,14,17,24,13.00
2007,10,14,17,25,13.00
2007,10,14,17,26,13.00
2007,10,14,17,27,13.00
2007,10,14,17,28,13.00
2007,10,14,17,29,13.00
2007,10,14,17,30,12.90
2007,10,14,17,31,12.90
2007,10,14,17,32,12.90
2007,10,14,17,33,12.90
2007,10,14,17,34,13.00
2007,10,14,17,35,13.00
2007,10,14,17,36,13.00
2007,10,14,17,37,13.10
2007,10,14,17,38,13.10
2007,10,14,17,39,13.10
2007,10,14,17,40,13.10
2007,10,14,17,41,13.20
2007,10,14,17,42,13.20
2007,10,14,17,43,13.20
2007,10,14,17,44,13.20